Hourly Data Report for July 04, 2017

PITT MEADOWS CS
BRITISH COLUMBIA

49°12'29.964" N
122°41'24.076" W
5.00 m
1106178
71775
WMM

Download Data

Hourly Data (July 2017)
Hourly Data Report for July 4, 2017
TIME
LST
Temp Definition
°C
Dew Point Definition
°C
Rel Hum Definition
%
Precip. Amount Definition
mm

Wind Dir Definition
10's deg

Wind Spd Definition
km/h
Visibility Definition
km
Stn Press Definition
kPa
Hmdx Definition


Wind Chill Definition


Weather Definition


00:00 13.5 10.6 83 0.0 11 2   101.87     LegendNANA
01:00 12.1 10.1 88 0.0 14 2   101.85     LegendNANA
02:00 12.0 10.5 90 0.0 7 4   101.85     LegendNANA
03:00 11.6 10.0 90 0.0 13 2   101.85     LegendNANA
04:00 11.4 9.9 90 0.0 10 1   101.83     LegendNANA
05:00 11.7 10.1 90 0.0   0   101.83     LegendNANA
06:00 14.0 10.5 79 0.0 11 3   101.84     LegendNANA
07:00 15.7 10.7 72 0.0 16 3   101.86     LegendNANA
08:00 17.3 10.2 63 0.0 15 2   101.82     LegendNANA
09:00 18.6 10.7 60 0.0 26 4   101.79     LegendNANA
10:00 20.3 10.0 51 0.0 23 4   101.74     LegendNANA
11:00 22.5 11.2 49 0.0 23 5   101.71     LegendNANA
12:00 23.1 11.7 49 0.0 22 6   101.67 25   LegendNANA
13:00 24.0 12.1 47 0.0 28 12   101.63 26   LegendNANA
14:00 25.1 12.0 44 0.0 26 10   101.58 27   LegendNANA
15:00 25.5 11.8 42 0.0 24 9   101.53 28   LegendNANA
16:00 25.4 11.1 41 0.0 22 7   101.49 27   LegendNANA
17:00 25.7 8.4 33 0.0 22 7   101.46 26   LegendNANA
18:00 24.5 11.8 45 0.0 18 6   101.44 27   LegendNANA
19:00 23.2 11.0 46 0.0 17 5   101.43 25   LegendNANA
20:00 20.9 10.5 52 0.0 19 5   101.44     LegendNANA
21:00 18.3 10.6 61 0.0 16 3   101.47     LegendNANA
22:00 16.2 10.3 68 0.0 12 3   101.48     LegendNANA
23:00 15.1 11.0 76 0.0 0 1   101.48     LegendNANA

Notes on Data Quality.

Legend

  • E = Estimated
  • M = Missing
  • NA = Not Available*
  • [empty] = Indicates an unobserved value
Date modified: